Home > Time Zones > World Clock > Weather > India > Sikar > Past weeks

Flag Weather past 2 weeks in Sikar, Rajasthan, India

Now
81 °F

Mostly cloudy.


Feels Like: 81 °F
Forecast: 69 / 86 °F
Wind: 6 mph from East

Location: Jaipur / Sanganer

Current Time: Oct 31, 2014 at 10:43:22 AM

Latest Report: Oct 31, 2014 at 10:00 AM


Visibility: 1 mi

Pressure: 30.07 "Hg

Humidity: 42%

Dew point: 55 °F

Location of SikarLocation

Historic Weather in Sikar — Graph

°F

Sikar temperature yesterday

Maximum temperature yesterday: 91 °F (at 2:00 PM)
Minimum temperature yesterday: 68 °F (at 7:00 AM)
Average temperature yesterday: 81 °F

Past Weeks' High & Low Weather Summary

 TemperatureHumidityPressure
High95 °F (Oct 23, 3:00 PM)78% (Oct 16, 9:00 AM)30.12 "Hg (Oct 16, 9:00 AM)
Low64 °F (Oct 18, 6:00 AM)18% (Oct 20, 1:00 PM)29.86 "Hg (Oct 21, 7:00 AM)
Average80 °F43%29.98 "Hg
* Reported Oct 16 9:00 AM — Oct 31 9:00 AM, Sikar, Weather by CustomWeather, © 2014

Note: Actual official high and low records may vary slightly from our data, if they occured in-between our weather recording intervals... More about our weather records

Advertising

Sikar weather history for previous 24 hours

 ConditionsComfort  
Time TempWeatherWind HumidityBarometerVisibility
9:00 AM
Oct 31
79 °FMostly cloudy.5 mph45%30.04 "Hg1 mi
8:00 AM75 °FBroken clouds.No wind50%30.01 "Hg1 mi
7:00 AM73 °FPassing clouds.No wind53%30.01 "Hg1 mi
6:30 AM72 °FPassing clouds.3 mph61%29.98 "Hg1 mi
6:00 AM73 °FPassing clouds.No wind53%29.98 "Hg1 mi
5:00 AM75 °FPassing clouds.No wind50%29.95 "Hg1 mi
4:00 AM75 °FPartly cloudy.No wind47%29.95 "Hg1 mi
3:00 AM77 °FPartly cloudy.No wind44%29.95 "Hg1 mi
1:00 AM79 °FPartly cloudy.3 mph39%29.95 "Hg1 mi
12:00 AM79 °FPartly cloudy.No wind42%29.95 "Hg1 mi
11:00 PM
Oct 30
77 °FPartly cloudy.No wind42%29.98 "Hg1 mi
10:00 PM77 °FPartly cloudy.No wind42%29.98 "Hg1 mi
9:00 PM81 °FPartly cloudy.No wind37%29.98 "Hg1 mi
8:00 PM79 °FPartly cloudy.No wind42%29.95 "Hg1 mi
7:30 PM81 °FPartly cloudy.No wind39%29.95 "Hg1 mi
7:00 PM81 °FPassing clouds.No wind39%29.95 "Hg1 mi
6:00 PM86 °FScattered clouds.2 mph29%29.92 "Hg1 mi
5:00 PM90 °FScattered clouds.7 mph24%29.92 "Hg1 mi
4:00 PM91 °FScattered clouds.7 mph21%29.89 "Hg1 mi
3:00 PM90 °FScattered clouds.8 mph21%29.89 "Hg1 mi
2:00 PM91 °FScattered clouds.7 mph20%29.92 "Hg1 mi
10:00 AM82 °FHaze.1 mph40%30.01 "Hg1 mi
Weather by CustomWeather, © 2014

See weather overviewHow to use our weather pages